Location: Pedholt
(56.0260°N, 10.2097°E)
Time: 21:23:37
(UTC+00:00)

Tiros 1 - Pass Details

Date: 07 August 2021
Orbit: 630 x 663 km, 48.4° (Epoch: 19 September)

Event Time Altitude Azimuth Distance (km) Brightness Sun altitude
Rises 18:56:58 0° 264° (W) 2,987 11.6 1.2°
Reaches altitude 10° 18:59:34 10° 253° (WSW) 2,069 10.5 0.9°
Maximum altitude 19:03:37 28° 195° (SSW) 1,220 8.5 0.4°
Drops below altitude 10° 19:07:38 10° 137° (SE) 2,048 9.1 -0.1°
Enters shadow 19:10:03 - 126° (SE) 2,892 9.8 -0.4°
Sets 19:10:12 0° 125° (SE) 2,950 - -0.4°
